Wind_Speed
24 25 25 25 24 23 22 20 18 15 13 10 9 8 7 6 5 4 4 5 5 6 7 9 9 9 10 10 11 11 12 13 13 13 13 13 14 14 14 15 17 17 17 18
25 26 26 25 24 23 21 18 16 14 12 10 9 8 6 5 3 3 4 5 6 6 7 8 9 9 9 10 11 12 12 13 13 13 13 13 14 14 14 15 16 17 17 17
25 26 26 24 23 21 18 17 15 13 11 10 9 7 5 3 3 3 4 5 6 7 8 8 8 9 9 10 11 11 12 12 12 13 13 13 13 14 14 15 16 17 17 17
25 24 24 23 21 19 17 17 15 14 12 11 9 7 5 3 2 3 4 5 7 8 8 8 8 8 9 10 11 11 12 13 13 13 13 13 13 14 14 15 16 16 17 17
25 24 23 21 20 19 18 16 15 13 12 10 9 7 5 3 2 3 4 5 6 7 8 8 8 8 9 10 11 12 12 12 13 13 13 13 13 13 14 15 16 16 16 17
22 21 21 20 18 17 17 15 14 12 11 10 9 7 5 3 2 3 4 5 6 7 7 8 8 9 9 10 11 12 12 12 13 13 13 13 13 13 14 14 15 16 16 16
20 18 18 18 17 15 15 14 14 12 12 10 8 6 5 3 3 3 5 6 7 8 8 8 9 9 10 11 12 12 12 12 13 13 13 13 13 13 14 14 15 15 16 15
17 16 16 15 14 14 13 14 13 12 11 9 7 6 4 4 3 4 5 6 7 7 8 8 9 9 10 11 11 12 12 13 13 13 13 14 14 14 14 15 15 15 15 15
16 14 14 13 12 12 12 11 11 11 10 8 7 5 5 4 4 5 5 6 6 6 7 8 8 9 10 11 11 12 12 13 13 13 14 14 14 14 15 15 15 15 15 15
15 13 13 12 12 11 11 11 11 11 10 8 7 6 4 4 4 5 5 5 6 6 7 8 8 9 10 11 11 12 13 13 13 13 14 14 14 14 15 15 15 15 15 15
14 13 13 12 12 11 11 10 10 9 9 8 7 6 5 4 4 4 4 5 6 6 7 7 8 9 10 11 11 12 13 14 14 14 14 15 15 15 16 16 16 16 16 16
13 13 12 11 11 10 10 9 9 9 8 8 7 6 5 4 4 4 5 5 6 7 7 8 9 10 11 11 12 13 13 14 14 15 15 15 15 16 16 16 16 16 17 16
12 12 11 10 10 10 9 9 9 8 8 7 7 6 5 5 5 5 5 5 6 7 7 8 8 9 11 12 13 13 14 15 15 16 16 16 16 17 17 17 17 17 17 17
12 12 11 10 10 10 9 9 8 8 7 7 6 6 5 5 5 5 5 6 6 7 7 8 9 10 11 12 13 14 15 15 16 17 17 17 17 18 18 19 19 19 18 18
11 11 10 10 9 9 9 9 9 8 8 7 6 6 5 5 5 5 6 6 7 8 9 10 11 11 12 13 14 15 16 17 18 18 19 19 19 19 19 20 20 20 20 20
10 9 9 9 9 9 8 8 8 8 7 7 6 6 5 5 5 6 7 8 9 10 11 12 12 13 14 15 16 17 18 19 20 20 21 21 21 22 22 21 22 22 22 21
9 9 9 8 8 8 8 8 8 8 8 7 7 7 7 7 7 8 9 9 10 12 13 14 15 16 17 18 19 20 20 21 22 23 23 24 24 24 25 24 24 24 24 24
10 10 9 9 9 9 8 9 8 8 8 9 9 8 8 9 9 10 11 12 13 14 14 16 17 18 19 20 21 22 23 24 25 26 26 27 27 27 28 28 28 27 27 26
11 11 10 10 10 9 10 10 10 10 10 10 10 10 11 11 11 12 13 14 15 16 17 18 19 20 22 23 24 25 26 27 28 29 29 30 30 31 31 31 31 30 30 30
12 12 12 12 12 12 12 12 12 12 12 12 12 13 13 13 14 15 16 17 18 19 20 21 22 23 24 26 27 28 30 31 32 32 33 33 34 34 34 34 34 34 33 33
15 15 14 14 14 14 14 14 14 15 14 15 15 15 15 16 17 18 19 20 21 22 23 24 25 27 28 30 31 32 33 34 35 36 37 37 38 38 38 38 38 38 37 37
19 18 18 17 17 17 18 17 17 18 18 18 18 18 19 20 20 21 22 24 25 26 27 28 30 31 32 34 35 36 37 38 39 40 41 41 42 42 43 43 42 42 41 41
22 22 21 21 21 21 21 21 21 21 21 21 21 22 23 23 24 25 26 27 28 30 31 32 34 35 36 37 38 40 41 42 43 44 45 46 46 47 47 47 47 47 46 45
26 25 25 24 24 24 24 24 24 24 24 24 25 25 26 27 28 29 29 31 32 33 34 36 37 38 40 41 42 44 45 46 47 48 49 49 50 50 50 50 50 50 49 49
30 29 29 29 28 28 28 28 28 28 28 28 28 29 30 30 31 32 33 34 35 36 38 39 40 42 43 44 46 47 49 50 51 52 53 53 52 52 53 53 53 52 51 51
33 33 33 33 32 32 32 32 32 32 31 31 32 32 33 33 34 34 35 36 38 39 40 41 43 44 46 47 49 50 52 53 54 54 54 55 55 55 55 55 54 53 54 53
Wind_Direction
165 167 169 172 176 178 182 187 192 197 197 198 202 206 214 221 232 248 272 288 297 304 305 303 306 305 304 304 305 306 310 310 311 313 312 313 315 317 321 324 328 331 334 333
157 160 164 168 171 174 178 180 183 186 187 189 193 201 201 205 228 262 289 304 311 311 310 309 310 310 309 309 309 308 311 312 312 312 312 314 317 320 324 327 331 334 334 335
152 156 160 163 165 168 172 173 173 174 176 177 177 181 184 199 241 278 301 313 316 316 313 311 311 311 311 310 311 313 315 315 314 314 314 315 319 322 327 331 334 336 337 338
146 150 154 158 161 163 164 164 164 162 163 162 164 172 185 203 259 300 312 315 318 318 317 314 313 311 312 312 313 314 316 316 315 315 315 315 318 323 329 333 336 339 340 340
145 149 153 155 156 157 156 158 160 161 162 167 168 182 195 220 271 309 318 318 317 315 312 309 311 311 311 312 313 314 314 315 317 317 315 315 318 322 328 333 337 340 341 342
145 148 150 152 152 153 154 157 160 162 166 175 181 189 204 220 270 302 310 314 316 316 311 309 310 310 311 313 315 316 317 318 319 320 318 318 320 323 327 332 336 340 342 344
145 146 147 150 149 149 152 155 157 162 169 180 183 197 211 226 260 293 308 315 314 314 312 314 317 318 318 319 319 320 320 320 320 319 320 320 321 323 326 330 334 338 342 344
147 147 146 146 147 152 155 155 159 165 174 179 187 207 214 229 249 283 304 312 314 313 314 317 318 319 321 323 324 324 324 323 322 321 321 322 322 323 325 328 331 335 339 342
148 153 154 152 152 154 157 159 160 167 174 187 198 204 213 226 253 276 295 309 316 317 318 320 320 320 321 324 326 326 327 327 325 323 323 323 323 324 324 325 329 331 334 337
146 151 155 156 156 156 157 159 166 171 180 193 202 211 221 230 254 271 290 309 319 322 322 323 324 322 324 326 326 326 326 327 327 325 324 322 323 324 324 324 325 328 329 331
149 152 156 159 161 162 165 167 171 177 184 194 209 215 221 232 251 270 286 302 311 318 322 324 325 324 324 327 328 328 327 326 325 324 323 322 321 322 322 321 322 323 325 326
153 155 160 163 165 168 170 172 175 183 189 194 209 217 226 237 254 270 286 298 309 316 321 323 325 326 325 326 327 326 325 325 323 322 321 320 320 320 321 320 319 319 320 321
160 162 166 171 175 178 181 182 182 184 187 196 211 220 233 241 252 269 287 301 311 319 322 323 324 326 326 326 325 325 323 322 322 321 320 319 317 317 317 317 316 315 315 316
166 169 172 178 181 184 188 189 188 190 194 201 212 222 233 246 258 272 288 302 313 320 324 325 324 324 324 323 323 322 322 322 321 320 319 317 316 314 313 312 312 311 310 310
173 176 181 183 186 189 188 188 190 192 196 206 218 229 241 253 265 278 292 303 313 319 322 322 322 322 322 322 322 320 318 319 319 319 318 316 314 312 311 310 309 307 306 305
183 186 189 191 193 194 195 195 196 200 208 218 228 238 252 262 272 287 298 306 312 316 318 319 319 319 320 320 320 319 318 316 315 314 314 313 311 309 308 306 305 304 303 302
194 196 199 203 205 206 208 211 213 217 224 232 240 250 262 271 280 290 297 303 307 310 312 313 314 314 313 314 315 315 314 314 313 312 310 309 308 307 305 303 301 300 299 298
206 208 210 214 219 223 220 225 227 232 238 244 251 261 270 277 283 290 296 299 302 304 305 306 307 308 309 309 311 311 311 311 311 310 309 308 306 304 302 300 299 297 295 294
216 219 223 227 231 231 236 239 243 248 250 256 261 269 275 280 284 289 293 296 299 301 302 303 304 306 306 307 308 309 308 308 307 307 306 305 304 303 301 299 296 295 293 291
229 231 232 235 240 243 246 250 253 257 259 265 268 272 277 281 284 289 291 295 297 299 300 301 302 303 304 305 305 306 306 307 307 305 304 303 302 301 300 298 296 294 291 289
239 240 242 244 247 250 253 256 259 262 267 268 271 274 278 281 285 289 291 294 296 298 299 300 300 301 303 304 305 305 305 306 306 304 302 301 300 299 297 296 295 293 290 287
244 245 247 250 252 255 258 261 263 265 268 271 273 275 278 281 285 288 291 293 295 296 298 298 299 300 302 303 304 304 304 305 304 303 301 299 298 297 296 294 292 291 289 286
247 249 251 254 257 259 261 263 265 267 269 271 274 276 279 281 284 287 290 292 294 295 297 298 299 301 301 302 303 303 304 304 303 301 300 299 297 296 295 293 291 289 287 284
251 252 254 256 258 260 262 264 266 268 270 273 275 277 279 281 284 286 288 291 293 294 296 298 299 300 301 302 302 303 303 304 303 302 300 299 298 296 294 293 290 288 285 282
254 256 257 258 260 262 264 266 268 269 271 273 275 277 279 282 284 287 289 291 293 295 296 297 298 300 301 302 302 303 304 304 303 302 302 300 298 296 295 293 291 288 284 281
255 257 258 259 261 263 265 267 269 270 272 274 276 278 280 282 285 287 289 291 293 294 296 297 298 300 301 302 303 304 304 304 304 303 302 301 299 298 296 294 291 288 284 280
Height
5802 5808 5813 5819 5824 5830 5834 5839 5843 5846 5849 5852 5854 5855 5856 5857 5858 5859 5859 5859 5860 5859 5859 5859 5858 5858 5857 5856 5854 5853 5852 5850 5848 5847 5845 5843 5841 5838 5835 5833 5829 5826 5822 5819
5804 5809 5814 5819 5824 5829 5834 5839 5842 5846 5848 5851 5853 5854 5856 5856 5857 5858 5858 5858 5858 5858 5858 5857 5857 5856 5855 5854 5853 5852 5850 5849 5847 5845 5843 5841 5839 5836 5833 5831 5827 5824 5821 5817
5806 5812 5816 5821 5826 5831 5835 5839 5842 5845 5848 5850 5853 5854 5855 5856 5857 5857 5858 5858 5857 5857 5856 5856 5855 5854 5854 5853 5851 5850 5849 5847 5845 5843 5841 5839 5837 5835 5832 5829 5826 5822 5819 5815
5809 5814 5818 5823 5827 5832 5836 5839 5842 5845 5848 5851 5853 5854 5855 5856 5857 5857 5857 5856 5856 5856 5855 5854 5854 5853 5852 5851 5850 5848 5847 5845 5843 5841 5840 5837 5836 5833 5830 5828 5824 5821 5818 5814
5813 5817 5821 5825 5829 5833 5836 5840 5843 5846 5849 5851 5853 5855 5856 5856 5856 5856 5856 5855 5855 5854 5854 5853 5853 5852 5851 5850 5848 5847 5845 5844 5842 5840 5838 5836 5834 5831 5829 5826 5823 5820 5817 5813
5817 5820 5824 5827 5831 5834 5838 5841 5844 5846 5849 5852 5853 5855 5855 5855 5856 5855 5855 5854 5854 5853 5853 5852 5851 5850 5849 5848 5847 5845 5844 5842 5840 5838 5836 5834 5832 5830 5828 5825 5822 5819 5816 5813
5821 5824 5827 5830 5833 5836 5839 5842 5845 5847 5849 5851 5853 5854 5855 5854 5855 5854 5854 5853 5852 5852 5851 5850 5850 5849 5848 5846 5845 5843 5842 5840 5838 5836 5835 5833 5831 5829 5826 5824 5821 5818 5815 5812
5824 5827 5830 5832 5834 5837 5839 5843 5847 5849 5850 5851 5852 5853 5854 5853 5853 5853 5852 5852 5851 5850 5850 5849 5848 5847 5846 5845 5844 5842 5840 5839 5837 5835 5833 5831 5829 5827 5825 5823 5820 5818 5815 5812
5827 5830 5832 5834 5836 5838 5840 5842 5845 5848 5849 5851 5851 5852 5852 5852 5852 5851 5851 5850 5850 5849 5848 5847 5847 5846 5845 5843 5842 5840 5839 5837 5835 5833 5832 5830 5828 5826 5824 5821 5819 5817 5814 5811
5829 5831 5833 5835 5837 5839 5841 5842 5845 5847 5848 5850 5850 5850 5851 5850 5850 5850 5849 5849 5848 5847 5847 5846 5845 5844 5843 5842 5840 5839 5837 5835 5833 5832 5830 5828 5826 5824 5822 5820 5818 5815 5813 5811
5830 5832 5835 5836 5837 5839 5841 5843 5844 5846 5847 5849 5849 5851 5849 5849 5849 5848 5848 5847 5847 5846 5845 5844 5843 5842 5841 5840 5839 5837 5835 5833 5831 5830 5828 5826 5824 5822 5820 5818 5816 5814 5812 5810
5830 5833 5835 5836 5837 5839 5840 5842 5843 5845 5846 5846 5847 5850 5847 5847 5847 5846 5846 5846 5845 5844 5844 5843 5842 5841 5839 5838 5837 5835 5833 5831 5829 5828 5826 5824 5822 5820 5818 5816 5814 5812 5810 5808
5831 5833 5835 5837 5839 5839 5839 5840 5841 5843 5844 5845 5845 5848 5845 5845 5845 5844 5844 5844 5843 5842 5842 5841 5840 5839 5838 5836 5834 5833 5831 5829 5827 5825 5823 5821 5820 5818 5816 5814 5812 5810 5808 5806
5831 5833 5835 5837 5837 5837 5838 5839 5840 5841 5842 5843 5843 5844 5843 5843 5843 5843 5842 5842 5841 5841 5840 5839 5838 5837 5835 5834 5832 5830 5829 5827 5825 5823 5821 5819 5817 5815 5813 5811 5809 5807 5805 5803
5831 5833 5833 5834 5835 5836 5837 5838 5838 5839 5840 5841 5841 5841 5841 5841 5841 5840 5840 5840 5839 5838 5837 5836 5835 5834 5833 5831 5829 5827 5825 5824 5822 5820 5817 5815 5813 5811 5809 5808 5806 5804 5802 5800
5830 5831 5832 5833 5834 5834 5835 5836 5837 5837 5838 5838 5838 5839 5838 5838 5838 5838 5838 5837 5836 5836 5835 5833 5832 5831 5830 5828 5826 5824 5822 5820 5818 5816 5814 5812 5809 5807 5805 5803 5801 5800 5798 5796
5829 5830 5831 5832 5832 5833 5834 5835 5835 5835 5835 5836 5836 5837 5836 5836 5835 5835 5835 5834 5833 5832 5831 5830 5829 5827 5826 5824 5822 5820 5818 5816 5814 5812 5809 5807 5805 5803 5800 5798 5796 5794 5793 5791
5827 5828 5829 5830 5831 5831 5834 5832 5832 5832 5833 5833 5833 5833 5833 5833 5832 5832 5831 5830 5829 5828 5827 5826 5825 5823 5821 5819 5817 5815 5813 5811 5808 5806 5804 5801 5799 5797 5795 5792 5790 5788 5787 5785
5825 5826 5827 5827 5828 5829 5829 5829 5829 5829 5829 5830 5829 5829 5829 5829 5828 5828 5827 5826 5825 5824 5823 5821 5820 5818 5816 5814 5812 5809 5807 5805 5802 5800 5797 5795 5792 5790 5787 5785 5783 5781 5780 5778
5821 5822 5824 5824 5824 5825 5827 5826 5825 5826 5826 5826 5825 5825 5825 5824 5824 5824 5822 5821 5820 5819 5817 5816 5814 5812 5810 5808 5805 5803 5800 5797 5794 5792 5789 5786 5784 5782 5779 5777 5775 5773 5771 5769
5817 5818 5819 5819 5820 5821 5821 5821 5821 5822 5823 5821 5820 5820 5820 5819 5819 5818 5816 5815 5814 5812 5810 5809 5807 5805 5803 5800 5797 5794 5791 5788 5785 5782 5779 5776 5774 5771 5769 5767 5765 5763 5761 5759
5813 5813 5814 5814 5815 5817 5815 5815 5816 5817 5815 5815 5815 5814 5814 5813 5812 5811 5810 5808 5807 5805 5803 5801 5799 5796 5794 5791 5788 5785 5782 5779 5775 5771 5768 5765 5762 5759 5757 5754 5752 5750 5748 5747
5807 5808 5808 5810 5811 5810 5809 5809 5809 5809 5809 5809 5808 5808 5807 5806 5805 5804 5802 5800 5799 5797 5794 5792 5789 5787 5784 5781 5778 5774 5771 5767 5763 5759 5755 5752 5748 5745 5742 5740 5737 5735 5733 5732
5799 5800 5801 5802 5802 5801 5801 5801 5802 5802 5802 5801 5801 5800 5799 5798 5797 5795 5794 5792 5789 5787 5785 5782 5779 5776 5773 5770 5766 5762 5758 5754 5750 5745 5741 5737 5733 5729 5726 5723 5721 5718 5716 5714
5791 5792 5792 5793 5793 5793 5793 5793 5793 5793 5793 5793 5792 5791 5790 5789 5787 5786 5784 5781 5779 5776 5774 5771 5768 5765 5761 5757 5753 5749 5744 5740 5735 5730 5725 5721 5717 5713 5709 5705 5702 5699 5697 5695
5782 5782 5783 5784 5784 5784 5785 5784 5784 5784 5783 5783 5782 5781 5780 5779 5777 5775 5773 5771 5768 5765 5762 5759 5755 5752 5748 5744 5739 5734 5730 5725 5719 5714 5709 5704 5699 5695 5690 5686 5683 5680 5677 5675